Weather in zheleznodorozhnaya stantsiya Dikaya

Russia / Vologda Oblast     59°14′42″N   39°29′24″E
temp.,
°C
wind,
m/s
gust,
m/s
humid.,
%
clouds,
%
prec.,
mm/h
press.,
hPa
HPBL,
m
29 may, sun
sun2900:00+7wsw389598 0.0 1000220
03:00+7wsw3109493 0.0 1000266
06:00+8wsw489297 0.0 1001291
09:00+12wsw687146 0.3 10021179
12:00+15wsw6851100 0.3 10031997
15:00+13sw5966100 0.8 1005929
18:00+13w5875100 0.9 1006981
21:00+9wsw389356 1.5 1008182
30 may, mon
mon3000:00+7wsw3109767 0.0 1010237
03:00+9wsw4119168 0.0 1011451
06:00+9wsw411895 0.0 1012421
09:00+13wsw696664 0.0 10131138
12:00+15w71160100 0.1 10151819
15:00+11w51279100 0.4 1017746
18:00+13w367693 0.0 1018549
21:00+11sw118889 0.0 101911
31 may, tue
tue3100:00+10sw1184100 0.0 102010
03:00+8se11905 0.0 102110
06:00+11se2381100 0.0 1021120
09:00+16se35566 0.0 1021678
12:00+20se454625 0.0 10212039
15:00+20se454678 0.0 10202086
18:00+14s2779100 0.0 1021211
21:00+13se2680100 0.0 1021151
1 june, wed
wed100:00+12sse2986100 0.0 1020299
03:00+12ese31093100 0.3 1020394
06:00+12ese31098100 2.3 1019714
09:00+13s2599100 3.3 1019411
12:00+13w3495100 2.0 1020370
15:00+17nw237128 2.3 10201019
18:00+18nne22628 0.0 10201016
21:00+13ese228967 0.1 102126
2 june, thu
thu200:00+11s2293100 0.0 102112
03:00+10ese229413 0.0 102216
06:00+12ese259190 0.0 1021179
09:00+16ese3472100 0.0 1020675
12:00+19ese345814 0.0 10181467
15:00+20ese556359 0.1 1017981
18:00+20se45675 0.1 1016999
21:00+14se39885 0.1 1015187